Dothan, AL

11:20 PM CDT on June 25, 2017 (GMT -0500)
Dothan Regional

Weather History for KDHN - July, 2013

Change the Weather History Date:

Monday, July 22, 2013

  Actual Average Record
Temperature  
Mean Temperature 79 °F 82 °F  
Max Temperature 85 °F 92 °F 100 °F (2010)
Min Temperature 72 °F 72 °F 64 °F (1947)
Cooling Degree Days 14 17  
Month to date cooling degree days 306 373  
Year to date cooling degree days 1138 1230  
Since 1 June cooling degree days 766 817  
Growing Degree Days 28 (Base 50)    
Moisture  
Dew Point 72 °F    
Average Humidity 90    
Maximum Humidity 100    
Minimum Humidity 70    
Precipitation  
Precipitation 0.08 in 0.19 in 1.17 in (1958)
Month to date precipitation 13.98 4.22  
Year to date precipitation 31.46 32.18  
Sea Level Pressure  
Sea Level Pressure 30.08 in    
Wind  
Wind Speed 8 mph (SW)    
Max Wind Speed 20 mph    
Max Gust Speed 47 mph    
Visibility 7 miles    
Events Fog , Rain , Thunderstorm    
T = Trace of Precipitation, MM = Missing Value Source: NWS Daily Summary

Daily Weather History Graph

Daily Weather History Graph

Search for Another Location

Airport or City:

Trip Planner

Search our weather history database for the weather conditions in past years. The results will help you decide how hot, cold, wet, or windy it might be!

Date:

Astronomy

Jul. 22, 2013 Rise Set
Actual Time 5:52 AM CDT 7:43 PM CDT
Civil Twilight 5:25 AM CDT 8:10 PM CDT
Nautical Twilight 4:52 AM CDT 8:43 PM CDT
Astronomical Twilight 4:18 AM CDT 9:17 PM CDT
Moon 7:35 PM CDT (7/22) 5:43 AM CDT (7/22)
Length of Visible Light 14h 45m
Length of Day
13h 51m
Full, 100% of the Moon is Illuminated
Jul 22
Full
Jul 22
Full
Jul 29
Last Quarter
Aug 6
New
Aug 14
First Quarter

Hourly Weather History & Observations

Time (CDT) Temp. Heat Index Dew Point Humidity Pressure Visibility Wind Dir Wind Speed Gust Speed Precip Events Conditions
12:53 AM 73.0 °F - 72.0 °F 96% 30.08 in 10.0 mi SSW 5.8 mph - 0.01 in   Partly Cloudy
1:53 AM 73.0 °F - 72.0 °F 96% 30.07 in 10.0 mi SSW 3.5 mph - 0.01 in   Clear
2:53 AM 72.0 °F - 71.1 °F 97% 30.06 in 10.0 mi SSW 3.5 mph - 0.01 in   Clear
3:53 AM 73.0 °F - 71.1 °F 93% 30.05 in 10.0 mi SW 4.6 mph - N/A   Clear
4:40 AM 73.4 °F - 71.6 °F 94% 30.07 in 10.0 mi WSW 5.8 mph - 0.01 in   Mostly Cloudy
4:53 AM 73.0 °F - 71.1 °F 93% 30.06 in 10.0 mi WSW 6.9 mph - 0.01 in   Overcast
5:37 AM 73.4 °F - 71.6 °F 94% 30.08 in 10.0 mi SW 5.8 mph - N/A   Scattered Clouds
5:53 AM 73.0 °F - 71.1 °F 93% 30.08 in 10.0 mi SW 5.8 mph - 0.01 in   Clear
6:53 AM 73.9 °F - 72.0 °F 93% 30.08 in 10.0 mi SW 4.6 mph - N/A   Clear
7:53 AM 77.0 °F - 73.9 °F 90% 30.09 in 10.0 mi West 5.8 mph - N/A   Partly Cloudy
8:34 AM 80.6 °F 86.2 °F 75.2 °F 84% 30.11 in 10.0 mi SW 8.1 mph - 0.01 in   Mostly Cloudy
8:53 AM 81.0 °F 86.7 °F 75.0 °F 82% 30.10 in 10.0 mi West 6.9 mph - 0.01 in   Mostly Cloudy
9:16 AM 80.6 °F 85.4 °F 73.4 °F 79% 30.12 in 10.0 mi West 13.8 mph 18.4 mph N/A   Mostly Cloudy
9:53 AM 82.0 °F 87.4 °F 73.0 °F 74% 30.09 in 10.0 mi West 10.4 mph 17.3 mph N/A   Mostly Cloudy
10:09 AM 82.4 °F 88.2 °F 73.4 °F 74% 30.11 in 10.0 mi WSW 6.9 mph - N/A   Overcast
10:53 AM 84.0 °F 91.2 °F 73.9 °F 72% 30.09 in 10.0 mi West 6.9 mph - 0.01 in   Mostly Cloudy
11:07 AM 84.2 °F 90.9 °F 73.4 °F 70% 30.10 in 10.0 mi WNW 5.8 mph - N/A   Mostly Cloudy
11:53 AM 82.9 °F 88.8 °F 73.0 °F 72% 30.08 in 10.0 mi SW 8.1 mph - N/A   Mostly Cloudy
12:53 PM 79.0 °F - 72.0 °F 79% 30.06 in 10.0 mi SSW 10.4 mph - 0.00 in   Scattered Clouds
1:53 PM 84.0 °F 91.9 °F 75.0 °F 74% 30.04 in 10.0 mi South 12.7 mph 19.6 mph 0.00 in Thunderstorm Partly Cloudy
2:42 PM 78.8 °F - 73.4 °F 83% 30.11 in 0.5 mi WSW 18.4 mph 28.8 mph 0.00 in Fog , Rain , Thunderstorm Heavy Thunderstorms and Rain
2:47 PM 73.4 °F - 71.6 °F 94% 30.11 in 0.1 mi SW 18.4 mph 28.8 mph 0.00 in Fog , Rain , Thunderstorm Heavy Thunderstorms and Rain
2:53 PM 73.0 °F - 72.0 °F 96% 30.09 in 0.1 mi SW 19.6 mph 47.2 mph N/A Fog , Rain , Thunderstorm Heavy Thunderstorms and Rain
3:03 PM 73.4 °F - 71.6 °F 94% 30.09 in 0.2 mi SSW 10.4 mph 31.1 mph N/A Fog , Rain , Thunderstorm Heavy Thunderstorms and Rain
3:06 PM 73.4 °F - 71.6 °F 94% 30.10 in 0.5 mi SSW 11.5 mph - N/A Fog , Rain , Thunderstorm Heavy Thunderstorms and Rain
3:15 PM 73.4 °F - 71.6 °F 94% 30.10 in 1.8 mi SSW 9.2 mph - N/A Rain , Thunderstorm Heavy Rain
3:20 PM 73.4 °F - 71.6 °F 94% 30.10 in 3.0 mi SSW 9.2 mph - N/A Rain , Thunderstorm Rain
3:25 PM 73.4 °F - 71.6 °F 94% 30.09 in 4.0 mi SSW 11.5 mph - N/A Rain Rain
3:53 PM 73.9 °F - 72.0 °F 93% 30.07 in 3.0 mi SW 13.8 mph - N/A Rain Heavy Rain
4:25 PM 73.4 °F - 71.6 °F 94% 30.08 in 8.0 mi SW 12.7 mph 19.6 mph N/A Rain Rain
4:53 PM 73.9 °F - 73.0 °F 97% 30.05 in 9.0 mi SW 13.8 mph 19.6 mph N/A Rain Light Rain
5:53 PM 75.0 °F - 73.0 °F 94% 30.04 in 10.0 mi SSW 10.4 mph - 0.00 in   Mostly Cloudy
6:53 PM 75.0 °F - 73.0 °F 94% 30.05 in 10.0 mi WSW 6.9 mph - N/A   Overcast
7:51 PM 75.2 °F - 73.4 °F 94% 30.08 in 1.8 mi WNW 10.4 mph - 0.01 in Rain Heavy Rain
7:53 PM 73.9 °F - 73.0 °F 97% 30.06 in 1.2 mi WNW 9.2 mph - 0.01 in Rain Heavy Rain
8:07 PM 73.4 °F - 73.4 °F 100% 30.07 in 1.8 mi West 10.4 mph - N/A Rain Heavy Rain
8:14 PM 73.4 °F - 73.4 °F 100% 30.07 in 2.5 mi WSW 8.1 mph - N/A Rain Heavy Rain
8:19 PM 73.4 °F - 73.4 °F 100% 30.07 in 4.0 mi SW 9.2 mph - N/A Rain , Thunderstorm Rain
8:50 PM 73.4 °F - 71.6 °F 94% 30.07 in 5.0 mi SW 9.2 mph - N/A Rain Heavy Rain
8:53 PM 73.9 °F - 72.0 °F 93% 30.05 in 5.0 mi WSW 10.4 mph - N/A Rain Rain
9:53 PM 73.0 °F - 72.0 °F 96% 30.04 in 10.0 mi SW 9.2 mph - N/A Rain Light Rain
10:45 PM 73.4 °F - 71.6 °F 94% 30.05 in 10.0 mi WSW 9.2 mph - N/A   Partly Cloudy
10:53 PM 73.0 °F - 71.1 °F 93% 30.03 in 10.0 mi WSW 8.1 mph - N/A   Partly Cloudy
11:53 PM 73.0 °F - 71.1 °F 93% 30.02 in 10.0 mi WSW 8.1 mph - N/A   Scattered Clouds